Location: Unspecified
(58.7730°N, 5.8460°E)
Time: 02:16:11
(UTC+02:00)

Cosmos 2058 - Visible Passes

Search period start: 31 March 2015 00:00
Search period end: 10 April 2015 00:00
Orbit: 567 x 590 km, 82.5° (Epoch: 30 March)

Date Brightness Start Highest point End Pass type
(mag) Time Alt. Az. Time Alt. Az. Time Alt. Az.
31 Mar 5.2 21:28:48 10° NNW 21:32:21 27° W 21:35:50 10° SSW visible
01 Apr 5.6 21:33:40 10° NW 21:36:56 22° W 21:40:05 10° SW visible
02 Apr 5.9 21:38:37 10° NW 21:41:28 18° W 21:44:14 10° SW visible
03 Apr 6.0 21:43:41 10° NW 21:46:00 14° W 21:48:12 10° WSW visible
04 Apr 6.3 21:49:01 10° WNW 21:50:30 12° W 21:51:51 10° W visible
